Regional Weather Roundup
Issued by NWS

Home | Current Version | Previous Version | Text Only | Print | Product List | Glossary Off
Versions: 1 2 3 4 5 6 7 8 9 10 11 12 13 14 15 16 17 18 19 20 21 22 23 24 25 26 27 28 29 30 31 32 33 34 35 36 37 38 39 40 41 42 43 44 45 46 47 48 49 50

000
ASUS45 KCYS 041710
RWRWY

WYOMING REGIONAL WEATHER ROUNDUP
NATIONAL WEATHER SERVICE CHEYENNE WY
1100 AM MDT TUE AUG 04 2015

NOTE:  "FAIR" INDICATES FEW OR NO CLOUDS BELOW 12,000 FEET
WITH NO SIGNIFICANT WEATHER AND/OR OBSTRUCTIONS TO VISIBILITY.

WYZ001-041800-
YELLOWSTONE NATIONAL PARK

CITY           SKY/WX    TMP DP  RH WIND       PRES   REMARKS
LK YELLOWSTONE   N/A     56  51  84 VRB3      30.30S
W YELLOWSTONE  NOT AVBL

$$
WYZ002>013-054>058-071-098>099-041800-
NORTHERN WYOMING

CITY           SKY/WX    TMP DP  RH WIND       PRES   REMARKS
JACKSON        MOSUNNY   64  54  68 CALM      30.23S
CODY           CLOUDY    68  50  52 W7        30.09R
GREYBULL       CLOUDY    72  53  51 CALM      29.99R
WORLAND        PTSUNNY   71  55  56 W3        30.00R
SHERIDAN       CLOUDY    75  51  43 NW20      29.97R
BUFFALO        FAIR      78  50  37 VRB6      30.02R
GILLETTE       FAIR      76  55  48 CALM      29.98R
HULETT         FAIR      79  55  44 SW6       29.99S
NEWCASTLE      FAIR      72  55  56 MISG      30.00

$$
WYZ014>020-022>026-101>103-041800-
CENTRAL WYOMING

CITY           SKY/WX    TMP DP  RH WIND       PRES   REMARKS
BIG PINEY      FAIR      68  48  48 N12G17    30.24F
PINEDALE       FAIR      64  50  59 NW17G24   30.26R
DUBOIS         CLOUDY    61  45  55 W22       30.22R
LANDER         PTSUNNY   71  54  54 CALM      30.09S
RIVERTON       PTSUNNY   75  53  46 NW12      30.09S
CASPER         PTSUNNY   69  55  60 SW16      30.06S
DOUGLAS        FAIR      75  52  44 NW8       30.03F

$$
WYZ021-027>030-104>119-041800-
SOUTHERN WYOMING

CITY           SKY/WX    TMP DP  RH WIND       PRES   REMARKS
EVANSTON       FAIR      67  46  47 SW8       30.28F
KEMMERER       FAIR      63  48  59 W12G18    30.30S
FORT BRIDGER   SUNNY     70  50  49 W10G16    30.31R
ROCK SPRINGS   FAIR      67  49  52 W14G22    30.24S
DIXON          PTSUNNY   69  47  45 W15       30.26R
RAWLINS        FAIR      66  52  60 W20G33    30.19R
SARATOGA       PTSUNNY   64  46  52 W25G31    30.22S
LARAMIE        CLOUDY    60  47  61 W23G29    30.21R
CHEYENNE       CLOUDY    66  51  58 NW9       30.13F
TORRINGTON     FAIR      80  52  37 SW12      29.98F
PINE BLUFFS    PTSUNNY   73  45  35 W14G22    30.08S

$$


USA.gov is the U.S. government's official web portal to all federal, state and local government web resources and services.